Location: Conflandey
(47.7287°N, 6.0456°E)
Time: 21:13:04
(UTC+00:00)

Cosmos 44 - Pass Details

Date: 24 October 2021
Orbit: 580 x 782 km, 65.1° (Epoch: 05 December)

Event Time Altitude Azimuth Distance (km) Brightness Sun altitude
Rises 18:32:30 0° 214° (SW) 3,253 7.1 -21.0°
Reaches altitude 10° 18:34:55 10° 214° (SW) 2,331 6.3 -21.4°
Maximum altitude 18:40:19 86° 128° (SE) 784 3.4 -22.3°
Enters shadow 18:42:35 36° 39° (NE) 1,208 4.2 -22.7°
